User: anonymous   Login
Location: Unspecified
(0.0000°N, 0.0000°E)
Time: 04:02:38
(UTC+00:00)
Language:

YAOGAN 1 - Orbit

View from above orbital plane
View from above orbital plane
View from above satellite
View from above satellite

Ground track
Ground track

The orbit data is extracted from the following two-line orbital elements,

1 29092U 06015A   18292.61102439 +.00000067 +00000-0 +14828-4 0  9992
2 29092 097.9865 309.0637 0001393 089.0396 271.0977 14.82942464674797
Epoch (UTC): 19 October 2018 14:39:52
Eccentricity: 0.0001393
inclination: 97.9865°
perigee height: 619 km
apogee height: 621 km
right ascension of ascending node: 309.0637°
argument of perigee: 89.0396°
revolutions per day: 14.82942464
mean anomaly at epoch: 271.0977°
orbit number at epoch: 67479

The dashed part of the orbit path shows where the satellite is in the earth's shadow,  

DLR